Time,TemperatureF,DewpointF,PressureIn,WindDirection,WindDirectionDegrees,WindSpeedMPH,WindSpeedGustMPH,Humidity,HourlyPrecipIn,Conditions,Clouds,dailyrainin,SoftwareType,DateUTC
2013-02-18 00:00:00,36.1,35.1,30.12,East,84,0.0,0.0,96,0.00,,---,0.01,VWS V14.01,2013-02-18 08:00:00,
2013-02-18 00:05:00,36.0,34.7,30.11,East,84,0.0,0.0,95,0.00,,---,0.00,VWS V14.01,2013-02-18 08:05:00,
2013-02-18 00:10:00,35.8,34.5,30.11,East,84,0.0,0.0,95,0.00,,---,0.00,VWS V14.01,2013-02-18 08:10:00,
2013-02-18 00:15:00,35.7,34.7,30.11,ENE,76,0.0,0.0,96,0.00,,---,0.00,VWS V14.01,2013-02-18 08:15:00,
2013-02-18 00:20:00,35.9,34.9,30.11,ENE,76,0.0,0.0,96,0.00,,---,0.00,VWS V14.01,2013-02-18 08:20:00,
2013-02-18 00:25:00,36.0,35.0,30.11,ENE,76,0.0,0.0,96,0.00,,---,0.00,VWS V14.01,2013-02-18 08:25:00,
2013-02-18 00:30:00,36.2,35.2,30.10,ENE,76,0.0,0.0,96,0.00,,---,0.00,VWS V14.01,2013-02-18 08:30:00,
2013-02-18 00:35:00,36.2,35.2,30.10,ENE,76,0.0,0.0,96,0.00,,---,0.00,VWS V14.01,2013-02-18 08:35:00,
2013-02-18 00:40:00,36.0,35.0,30.10,ENE,76,0.0,0.0,96,0.00,,---,0.00,VWS V14.01,2013-02-18 08:40:00,
2013-02-18 00:45:00,35.8,34.8,30.10,ENE,76,0.0,0.0,96,0.00,,---,0.00,VWS V14.01,2013-02-18 08:45:00,
2013-02-18 00:50:00,35.7,34.7,30.10,ENE,76,0.0,0.0,96,0.00,,---,0.00,VWS V14.01,2013-02-18 08:50:00,
2013-02-18 00:55:00,35.7,34.7,30.10,ENE,76,0.0,0.0,96,0.00,,---,0.00,VWS V14.01,2013-02-18 08:55:00,
2013-02-18 01:00:00,35.8,34.8,30.10,ENE,76,0.0,0.0,96,0.00,,---,0.00,VWS V14.01,2013-02-18 09:00:00,
2013-02-18 01:05:00,35.9,34.9,30.09,ENE,76,0.0,0.0,96,0.00,,---,0.00,VWS V14.01,2013-02-18 09:05:00,
2013-02-18 01:10:00,35.9,34.9,30.09,ENE,76,0.0,0.0,96,0.00,,---,0.00,VWS V14.01,2013-02-18 09:10:00,
2013-02-18 01:15:00,35.9,34.9,30.09,ENE,76,0.0,0.0,96,0.00,,---,0.00,VWS V14.01,2013-02-18 09:15:00,
2013-02-18 01:20:00,36.0,35.0,30.09,ENE,76,0.0,0.0,96,0.00,,---,0.00,VWS V14.01,2013-02-18 09:20:00,
2013-02-18 01:25:00,36.1,35.3,30.09,ENE,76,0.0,0.0,97,0.00,,---,0.00,VWS V14.01,2013-02-18 09:25:00,
2013-02-18 01:30:00,36.2,35.4,30.09,ENE,76,0.0,0.0,97,0.00,,---,0.00,VWS V14.01,2013-02-18 09:30:00,
2013-02-18 01:35:00,36.2,35.4,30.09,ENE,76,0.0,0.0,97,0.00,,---,0.00,VWS V14.01,2013-02-18 09:35:00,
2013-02-18 01:40:00,36.3,35.5,30.09,ENE,76,0.0,0.0,97,0.00,,---,0.00,VWS V14.01,2013-02-18 09:40:00,
2013-02-18 01:45:00,36.4,35.6,30.08,ENE,76,0.0,0.0,97,0.00,,---,0.00,VWS V14.01,2013-02-18 09:45:00,
2013-02-18 01:50:00,36.5,35.7,30.09,ENE,76,0.0,0.0,97,0.00,,---,0.00,VWS V14.01,2013-02-18 09:50:00,
2013-02-18 01:55:00,36.6,35.8,30.08,SSW,203,0.0,0.0,97,0.00,,---,0.00,VWS V14.01,2013-02-18 09:55:00,
2013-02-18 02:00:00,36.7,35.9,30.08,SSW,203,0.0,0.0,97,0.00,,---,0.00,VWS V14.01,2013-02-18 10:00:00,
2013-02-18 02:05:00,36.7,35.9,30.08,SSW,203,0.0,0.0,97,0.00,,---,0.00,VWS V14.01,2013-02-18 10:05:00,
2013-02-18 02:10:00,36.6,35.8,30.08,SSW,203,0.0,0.0,97,0.00,,---,0.00,VWS V14.01,2013-02-18 10:10:00,
2013-02-18 02:15:00,36.6,35.6,30.08,SSW,203,0.0,0.0,96,0.00,,---,0.00,VWS V14.01,2013-02-18 10:15:00,
2013-02-18 02:20:00,36.6,35.6,30.08,SSW,203,0.0,0.0,96,0.00,,---,0.00,VWS V14.01,2013-02-18 10:20:00,
2013-02-18 02:25:00,36.6,35.6,30.08,SSW,203,0.0,0.0,96,0.00,,---,0.00,VWS V14.01,2013-02-18 10:25:00,
2013-02-18 02:30:00,36.6,35.8,30.08,SSW,203,0.0,0.0,97,0.00,,---,0.00,VWS V14.01,2013-02-18 10:30:00,
2013-02-18 02:35:00,36.6,35.6,30.07,SSW,203,0.0,0.0,96,0.00,,---,0.00,VWS V14.01,2013-02-18 10:35:00,
2013-02-18 02:40:00,36.6,35.6,30.07,SSW,203,0.0,0.0,96,0.00,,---,0.00,VWS V14.01,2013-02-18 10:40:00,
2013-02-18 02:45:00,36.7,35.7,30.07,SSW,203,0.0,0.0,96,0.00,,---,0.00,VWS V14.01,2013-02-18 10:45:00,
2013-02-18 02:50:00,36.7,35.7,30.07,SSW,203,0.0,0.0,96,0.00,,---,0.00,VWS V14.01,2013-02-18 10:50:00,
2013-02-18 02:55:00,36.7,35.7,30.06,SSW,197,0.0,0.0,96,0.00,,---,0.00,VWS V14.01,2013-02-18 10:55:00,
2013-02-18 03:00:00,36.7,35.7,30.06,South,173,0.0,0.0,96,0.00,,---,0.00,VWS V14.01,2013-02-18 11:00:00,
2013-02-18 03:05:00,36.7,35.7,30.06,SSE,150,0.0,0.0,96,0.00,,---,0.00,VWS V14.01,2013-02-18 11:05:00,
2013-02-18 03:10:00,36.7,35.7,30.06,SSE,150,0.0,0.0,96,0.00,,---,0.00,VWS V14.01,2013-02-18 11:10:00,
2013-02-18 03:15:00,36.7,35.7,30.06,SSE,150,0.0,0.0,96,0.00,,---,0.00,VWS V14.01,2013-02-18 11:15:00,
2013-02-18 03:20:00,36.7,35.7,30.06,SSE,150,0.0,0.0,96,0.00,,---,0.00,VWS V14.01,2013-02-18 11:20:00,
2013-02-18 03:25:00,36.6,35.6,30.06,SSE,150,0.0,0.0,96,0.00,,---,0.00,VWS V14.01,2013-02-18 11:25:00,
2013-02-18 03:30:00,36.6,35.6,30.05,SSE,150,0.0,0.0,96,0.00,,---,0.00,VWS V14.01,2013-02-18 11:30:00,
2013-02-18 03:35:00,36.5,35.5,30.05,SSE,150,0.0,0.0,96,0.00,,---,0.00,VWS V14.01,2013-02-18 11:35:00,
2013-02-18 03:40:00,36.5,35.5,30.05,SSE,150,0.0,0.0,96,0.00,,---,0.00,VWS V14.01,2013-02-18 11:40:00,
2013-02-18 03:45:00,36.5,35.5,30.05,SSE,150,0.0,0.0,96,0.00,,---,0.00,VWS V14.01,2013-02-18 11:45:00,
2013-02-18 03:50:00,36.4,35.4,30.04,SSE,150,0.0,0.0,96,0.00,,---,0.00,VWS V14.01,2013-02-18 11:50:00,
2013-02-18 03:55:00,36.4,35.1,30.05,SSE,150,0.0,0.0,95,0.00,,---,0.00,VWS V14.01,2013-02-18 11:55:00,
2013-02-18 04:00:00,36.4,35.1,30.04,SSE,150,0.0,0.0,95,0.00,,---,0.00,VWS V14.01,2013-02-18 12:00:00,
2013-02-18 04:05:00,36.3,35.0,30.04,SSE,150,0.0,0.0,95,0.00,,---,0.00,VWS V14.01,2013-02-18 12:05:00,
2013-02-18 04:10:00,36.3,35.0,30.03,SSE,150,0.0,0.0,95,0.00,,---,0.00,VWS V14.01,2013-02-18 12:10:00,
2013-02-18 04:15:00,36.2,34.9,30.04,SSE,150,0.0,0.0,95,0.00,,---,0.00,VWS V14.01,2013-02-18 12:15:00,
2013-02-18 04:20:00,36.2,34.9,30.03,SSE,150,0.0,0.0,95,0.00,,---,0.00,VWS V14.01,2013-02-18 12:20:00,
2013-02-18 04:25:00,36.2,34.9,30.03,SSE,150,0.0,0.0,95,0.00,,---,0.00,VWS V14.01,2013-02-18 12:25:00,
2013-02-18 04:30:00,36.1,34.8,30.03,SSE,150,0.0,0.0,95,0.00,,---,0.00,VWS V14.01,2013-02-18 12:30:00,
2013-02-18 04:35:00,36.0,35.0,30.03,SSE,150,0.0,0.0,96,0.00,,---,0.00,VWS V14.01,2013-02-18 12:35:00,
2013-02-18 04:40:00,36.0,35.0,30.03,SE,133,0.0,0.0,96,0.00,,---,0.00,VWS V14.01,2013-02-18 12:40:00,
2013-02-18 04:45:00,36.0,35.0,30.03,ESE,113,0.0,0.0,96,0.00,,---,0.00,VWS V14.01,2013-02-18 12:45:00,
2013-02-18 04:50:00,36.1,35.1,30.03,ESE,113,0.0,0.0,96,0.00,,---,0.00,VWS V14.01,2013-02-18 12:50:00,
2013-02-18 04:55:00,36.2,35.2,30.02,ESE,113,0.0,0.0,96,0.00,,---,0.00,VWS V14.01,2013-02-18 12:55:00,
2013-02-18 05:00:00,36.2,34.9,30.02,ESE,113,0.0,0.0,95,0.00,,---,0.00,VWS V14.01,2013-02-18 13:00:00,
2013-02-18 05:05:00,36.3,35.0,30.02,ESE,113,0.0,0.0,95,0.00,,---,0.00,VWS V14.01,2013-02-18 13:05:00,
2013-02-18 05:10:00,36.2,34.9,30.02,ESE,113,0.0,0.0,95,0.00,,---,0.00,VWS V14.01,2013-02-18 13:10:00,
2013-02-18 05:15:00,36.1,34.8,30.02,ESE,113,0.0,0.0,95,0.00,,---,0.00,VWS V14.01,2013-02-18 13:15:00,
2013-02-18 05:20:00,36.1,34.8,30.02,ESE,113,0.0,0.0,95,0.00,,---,0.00,VWS V14.01,2013-02-18 13:20:00,
2013-02-18 05:25:00,36.0,34.7,30.01,ESE,113,0.0,0.0,95,0.00,,---,0.00,VWS V14.01,2013-02-18 13:25:00,
2013-02-18 05:30:00,35.9,34.6,30.01,East,93,0.0,0.0,95,0.00,,---,0.00,VWS V14.01,2013-02-18 13:30:00,
2013-02-18 05:35:00,35.7,34.4,30.01,East,93,0.0,0.0,95,0.00,,---,0.00,VWS V14.01,2013-02-18 13:35:00,
2013-02-18 05:40:00,35.6,34.3,30.01,East,93,0.0,0.0,95,0.00,,---,0.00,VWS V14.01,2013-02-18 13:40:00,
2013-02-18 05:45:00,35.6,34.6,30.01,East,93,0.0,0.0,96,0.00,,---,0.00,VWS V14.01,2013-02-18 13:45:00,
2013-02-18 05:50:00,35.5,34.5,30.01,East,93,0.0,0.0,96,0.00,,---,0.00,VWS V14.01,2013-02-18 13:50:00,
2013-02-18 05:55:00,35.4,34.4,30.01,East,93,0.0,0.0,96,0.00,,---,0.00,VWS V14.01,2013-02-18 13:55:00,
2013-02-18 06:00:00,35.4,34.4,30.01,East,93,0.0,0.0,96,0.00,,---,0.00,VWS V14.01,2013-02-18 14:00:00,
2013-02-18 06:05:00,35.3,34.3,30.01,East,93,0.0,0.0,96,0.00,,---,0.00,VWS V14.01,2013-02-18 14:05:00,
2013-02-18 06:10:00,35.3,34.3,30.01,East,93,0.0,0.0,96,0.00,,---,0.00,VWS V14.01,2013-02-18 14:10:00,
2013-02-18 06:15:00,35.3,34.3,30.01,East,93,0.0,0.0,96,0.00,,---,0.00,VWS V14.01,2013-02-18 14:15:00,
2013-02-18 06:20:00,35.2,34.2,30.01,East,93,0.0,0.0,96,0.00,,---,0.00,VWS V14.01,2013-02-18 14:20:00,
2013-02-18 06:25:00,35.2,34.2,30.00,East,93,0.0,0.0,96,0.00,,---,0.00,VWS V14.01,2013-02-18 14:25:00,
2013-02-18 06:30:00,35.1,34.1,30.00,East,93,0.0,0.0,96,0.00,,---,0.00,VWS V14.01,2013-02-18 14:30:00,
2013-02-18 06:35:00,35.1,34.1,30.00,East,93,0.0,0.0,96,0.00,,---,0.00,VWS V14.01,2013-02-18 14:35:00,
2013-02-18 06:40:00,35.2,34.2,30.00,East,93,0.0,0.0,96,0.00,,---,0.00,VWS V14.01,2013-02-18 14:40:00,
2013-02-18 06:45:00,35.2,34.2,30.00,East,93,0.0,0.0,96,0.00,,---,0.00,VWS V14.01,2013-02-18 14:45:00,
2013-02-18 06:50:00,35.2,34.2,30.00,East,93,0.0,0.0,96,0.00,,---,0.00,VWS V14.01,2013-02-18 14:50:00,
2013-02-18 06:55:00,35.2,34.2,30.00,East,93,0.0,0.0,96,0.00,,---,0.00,VWS V14.01,2013-02-18 14:55:00,
2013-02-18 07:00:00,35.2,34.2,30.00,East,93,0.0,0.0,96,0.00,,---,0.00,VWS V14.01,2013-02-18 15:00:00,
2013-02-18 07:05:00,35.4,34.6,30.00,East,93,0.0,0.0,97,0.00,,---,0.00,VWS V14.01,2013-02-18 15:05:00,
2013-02-18 07:10:00,35.5,34.7,30.00,East,93,0.0,0.0,97,0.00,,---,0.00,VWS V14.01,2013-02-18 15:10:00,
2013-02-18 07:15:00,35.2,34.2,30.00,WSW,241,0.0,0.0,96,0.00,,---,0.00,VWS V14.01,2013-02-18 15:15:00,
2013-02-18 07:20:00,35.2,34.2,30.00,WSW,241,0.0,0.0,96,0.00,,---,0.00,VWS V14.01,2013-02-18 15:20:00,
2013-02-18 07:25:00,35.4,34.6,30.00,WSW,241,0.0,0.0,97,0.00,,---,0.00,VWS V14.01,2013-02-18 15:25:00,
2013-02-18 07:30:00,35.6,34.8,30.00,SW,219,0.0,0.0,97,0.00,,---,0.00,VWS V14.01,2013-02-18 15:30:00,
2013-02-18 07:35:00,35.7,34.9,30.00,SW,234,0.0,0.0,97,0.00,,---,0.00,VWS V14.01,2013-02-18 15:35:00,
2013-02-18 07:40:00,35.6,34.8,30.00,SW,234,0.0,0.0,97,0.00,,---,0.00,VWS V14.01,2013-02-18 15:40:00,
2013-02-18 07:45:00,35.6,34.8,30.00,SW,234,0.0,0.0,97,0.00,,---,0.00,VWS V14.01,2013-02-18 15:45:00,
2013-02-18 07:50:00,35.6,34.8,30.00,SW,234,0.0,0.0,97,0.00,,---,0.00,VWS V14.01,2013-02-18 15:50:00,
2013-02-18 07:55:00,35.4,34.6,30.00,SW,234,0.0,0.0,97,0.00,,---,0.00,VWS V14.01,2013-02-18 15:55:00,
2013-02-18 08:00:00,35.2,34.4,30.00,SW,234,0.0,0.0,97,0.00,,---,0.00,VWS V14.01,2013-02-18 16:00:00,
2013-02-18 08:05:00,35.3,34.5,30.00,SW,234,0.0,0.0,97,0.00,,---,0.00,VWS V14.01,2013-02-18 16:05:00,
2013-02-18 08:10:00,35.3,34.5,30.00,SW,234,0.0,0.0,97,0.00,,---,0.00,VWS V14.01,2013-02-18 16:10:00,
2013-02-18 08:15:00,35.5,34.7,30.00,SW,234,0.0,0.0,97,0.00,,---,0.00,VWS V14.01,2013-02-18 16:15:00,
2013-02-18 08:20:00,35.6,34.8,30.00,SW,234,0.0,0.0,97,0.00,,---,0.00,VWS V14.01,2013-02-18 16:20:00,
2013-02-18 08:25:00,35.7,34.9,30.00,SW,234,0.0,0.0,97,0.00,,---,0.00,VWS V14.01,2013-02-18 16:25:00,
2013-02-18 08:30:00,35.9,35.1,29.99,SW,235,0.0,0.0,97,0.00,,---,0.00,VWS V14.01,2013-02-18 16:30:00,
2013-02-18 08:35:00,36.1,35.3,29.99,SW,235,0.0,0.0,97,0.00,,---,0.00,VWS V14.01,2013-02-18 16:35:00,
2013-02-18 08:40:00,36.3,35.5,29.99,ENE,72,0.0,0.0,97,0.00,,---,0.00,VWS V14.01,2013-02-18 16:40:00,
2013-02-18 08:45:00,36.5,35.7,29.99,ENE,72,0.0,0.0,97,0.00,,---,0.00,VWS V14.01,2013-02-18 16:45:00,
2013-02-18 08:50:00,36.7,35.9,29.98,ENE,72,0.0,0.0,97,0.00,,---,0.00,VWS V14.01,2013-02-18 16:50:00,
2013-02-18 08:55:00,37.0,36.2,29.98,ENE,57,0.0,0.0,97,0.00,,---,0.00,VWS V14.01,2013-02-18 16:55:00,
2013-02-18 09:00:00,37.1,36.3,29.98,ENE,57,0.0,0.0,97,0.00,,---,0.00,VWS V14.01,2013-02-18 17:00:00,
2013-02-18 09:05:00,37.2,36.4,29.98,SSW,200,0.0,0.0,97,0.00,,---,0.00,VWS V14.01,2013-02-18 17:05:00,
2013-02-18 09:10:00,37.2,36.4,29.99,West,268,0.0,0.0,97,0.00,,---,0.00,VWS V14.01,2013-02-18 17:10:00,
2013-02-18 09:16:00,37.2,36.4,29.99,South,178,0.0,0.0,97,0.00,,---,0.00,VWS V14.01,2013-02-18 17:16:00,
2013-02-18 09:21:00,37.3,36.5,29.98,ESE,115,0.0,2.0,97,0.00,,---,0.00,VWS V14.01,2013-02-18 17:21:00,
2013-02-18 09:26:00,37.4,36.4,29.98,ENE,59,0.0,2.0,96,0.00,,---,0.00,VWS V14.01,2013-02-18 17:26:00,
2013-02-18 09:31:00,37.5,36.5,29.98,ENE,74,1.0,1.0,96,0.00,,---,0.00,VWS V14.01,2013-02-18 17:31:00,
2013-02-18 09:36:00,37.6,36.6,29.98,ENE,62,0.0,3.0,96,0.00,,---,0.00,VWS V14.01,2013-02-18 17:36:00,
2013-02-18 09:41:00,37.7,36.7,29.99,ESE,103,0.0,3.0,96,0.00,,---,0.00,VWS V14.01,2013-02-18 17:41:00,
2013-02-18 09:46:00,37.9,36.9,29.98,ESE,107,1.0,2.0,96,0.00,,---,0.00,VWS V14.01,2013-02-18 17:46:00,
2013-02-18 09:51:00,37.9,36.6,29.98,SW,221,0.0,3.0,95,0.00,,---,0.00,VWS V14.01,2013-02-18 17:51:00,
2013-02-18 09:56:00,38.0,36.7,29.98,ESE,102,1.0,3.0,95,0.00,,---,0.00,VWS V14.01,2013-02-18 17:56:00,
2013-02-18 10:01:00,38.1,36.8,29.98,SSE,166,0.0,0.0,95,0.00,,---,0.00,VWS V14.01,2013-02-18 18:01:00,
2013-02-18 10:06:00,38.3,37.0,29.98,NE,56,1.0,3.0,95,0.00,,---,0.00,VWS V14.01,2013-02-18 18:06:00,
2013-02-18 10:11:00,38.5,37.2,29.97,South,174,0.0,3.0,95,0.00,,---,0.00,VWS V14.01,2013-02-18 18:11:00,
2013-02-18 10:16:00,38.8,37.5,29.97,SSW,193,2.0,2.0,95,0.00,,---,0.00,VWS V14.01,2013-02-18 18:16:00,
2013-02-18 10:21:00,38.9,37.0,29.97,SSE,163,0.0,2.0,93,0.00,,---,0.00,VWS V14.01,2013-02-18 18:21:00,
2013-02-18 10:26:00,39.3,37.5,29.97,NNW,329,0.0,3.0,93,0.00,,---,0.00,VWS V14.01,2013-02-18 18:26:00,
2013-02-18 10:31:00,39.7,37.6,29.97,SE,124,3.0,3.0,92,0.00,,---,0.00,VWS V14.01,2013-02-18 18:31:00,
2013-02-18 10:36:00,39.8,37.4,29.97,East,93,2.0,3.0,91,0.00,,---,0.00,VWS V14.01,2013-02-18 18:36:00,
2013-02-18 10:41:00,39.8,37.4,29.97,SW,219,0.0,3.0,91,0.00,,---,0.00,VWS V14.01,2013-02-18 18:41:00,
2013-02-18 10:46:00,39.9,37.2,29.97,NE,53,3.0,5.0,90,0.00,,---,0.00,VWS V14.01,2013-02-18 18:46:00,
2013-02-18 10:51:00,39.8,37.4,29.97,SE,132,3.0,5.0,91,0.00,,---,0.00,VWS V14.01,2013-02-18 18:51:00,
2013-02-18 10:56:00,40.0,37.6,29.97,SE,129,1.0,5.0,91,0.00,,---,0.00,VWS V14.01,2013-02-18 18:56:00,
2013-02-18 11:01:00,40.1,37.4,29.97,ESE,121,2.0,5.0,90,0.00,,---,0.00,VWS V14.01,2013-02-18 19:01:00,
2013-02-18 11:06:00,40.1,37.4,29.96,South,176,2.0,6.0,90,0.00,,---,0.00,VWS V14.01,2013-02-18 19:06:00,
2013-02-18 11:11:00,40.2,37.8,29.96,ESE,104,2.0,6.0,91,0.00,,---,0.00,VWS V14.01,2013-02-18 19:11:00,
2013-02-18 11:16:00,40.4,37.7,29.96,East,86,2.0,2.0,90,0.00,,---,0.00,VWS V14.01,2013-02-18 19:16:00,
2013-02-18 11:21:00,40.6,37.6,29.96,SE,130,0.0,4.0,89,0.00,,---,0.00,VWS V14.01,2013-02-18 19:21:00,
2013-02-18 11:26:00,40.7,37.7,29.95,SSE,168,0.0,4.0,89,0.00,,---,0.00,VWS V14.01,2013-02-18 19:26:00,
2013-02-18 11:31:00,40.8,37.8,29.96,SE,138,1.0,4.0,89,0.00,,---,0.00,VWS V14.01,2013-02-18 19:31:00,
2013-02-18 11:36:00,40.7,37.7,29.95,SSW,192,0.0,4.0,89,0.00,,---,0.00,VWS V14.01,2013-02-18 19:36:00,
2013-02-18 11:41:00,41.0,38.0,29.95,East,98,0.0,4.0,89,0.00,,---,0.00,VWS V14.01,2013-02-18 19:41:00,
2013-02-18 11:46:00,41.2,37.9,29.95,WNW,290,0.0,0.0,88,0.00,,---,0.00,VWS V14.01,2013-02-18 19:46:00,
2013-02-18 11:51:00,41.4,37.8,29.95,East,100,0.0,4.0,87,0.00,,---,0.00,VWS V14.01,2013-02-18 19:51:00,
2013-02-18 11:56:00,41.5,38.2,29.95,ENE,57,0.0,4.0,88,0.00,,---,0.00,VWS V14.01,2013-02-18 19:56:00,
2013-02-18 12:01:00,41.6,37.7,29.94,South,171,4.0,4.0,86,0.00,,---,0.00,VWS V14.01,2013-02-18 20:01:00,
2013-02-18 12:06:00,41.6,38.0,29.94,SE,128,0.0,4.0,87,0.00,,---,0.00,VWS V14.01,2013-02-18 20:06:00,
2013-02-18 12:11:00,41.9,37.7,29.94,SSW,205,1.0,5.0,85,0.00,,---,0.00,VWS V14.01,2013-02-18 20:11:00,
2013-02-18 12:16:00,41.9,37.7,29.94,WSW,250,3.0,4.0,85,0.00,,---,0.00,VWS V14.01,2013-02-18 20:16:00,
2013-02-18 12:21:00,42.2,37.7,29.94,West,269,0.0,4.0,84,0.00,,---,0.00,VWS V14.01,2013-02-18 20:21:00,
2013-02-18 12:26:00,42.5,38.0,29.94,ENE,69,0.0,4.0,84,0.00,,---,0.00,VWS V14.01,2013-02-18 20:26:00,
2013-02-18 12:31:00,42.8,38.3,29.93,West,277,0.0,2.0,84,0.00,,---,0.00,VWS V14.01,2013-02-18 20:31:00,
2013-02-18 12:36:00,42.8,37.7,29.93,SE,138,0.0,6.0,82,0.00,,---,0.00,VWS V14.01,2013-02-18 20:36:00,
2013-02-18 12:41:00,42.8,37.4,29.93,SE,130,1.0,8.0,81,0.00,,---,0.00,VWS V14.01,2013-02-18 20:41:00,
2013-02-18 12:46:00,42.7,37.3,29.93,East,96,2.0,6.0,81,0.00,,---,0.00,VWS V14.01,2013-02-18 20:46:00,
2013-02-18 12:51:00,42.7,37.3,29.92,West,275,1.0,6.0,81,0.00,,---,0.00,VWS V14.01,2013-02-18 20:51:00,
2013-02-18 12:56:00,42.9,37.5,29.92,SE,132,1.0,6.0,81,0.00,,---,0.00,VWS V14.01,2013-02-18 20:56:00,
2013-02-18 13:01:00,42.8,37.1,29.92,SE,142,2.0,7.0,80,0.00,,---,0.00,VWS V14.01,2013-02-18 21:01:00,
2013-02-18 13:06:00,42.8,37.1,29.92,SE,136,3.0,7.0,80,0.00,,---,0.00,VWS V14.01,2013-02-18 21:06:00,
2013-02-18 13:11:00,42.8,37.1,29.92,SSE,165,1.0,7.0,80,0.00,,---,0.00,VWS V14.01,2013-02-18 21:11:00,
2013-02-18 13:16:00,43.0,37.3,29.92,ESE,113,3.0,3.0,80,0.00,,---,0.00,VWS V14.01,2013-02-18 21:16:00,
2013-02-18 13:21:00,42.9,36.8,29.91,West,263,5.0,7.0,79,0.00,,---,0.00,VWS V14.01,2013-02-18 21:21:00,
2013-02-18 13:26:00,43.2,37.5,29.91,South,169,4.0,7.0,80,0.00,,---,0.00,VWS V14.01,2013-02-18 21:26:00,
2013-02-18 13:31:00,43.3,36.9,29.91,SW,220,2.0,3.0,78,0.00,,---,0.00,VWS V14.01,2013-02-18 21:31:00,
2013-02-18 13:36:00,43.4,37.0,29.91,SSE,164,2.0,11.0,78,0.00,,---,0.00,VWS V14.01,2013-02-18 21:36:00,
2013-02-18 13:41:00,43.5,37.1,29.91,NW,322,2.0,11.0,78,0.00,,---,0.00,VWS V14.01,2013-02-18 21:41:00,
2013-02-18 13:46:00,43.6,36.9,29.91,ESE,121,3.0,3.0,77,0.00,,---,0.00,VWS V14.01,2013-02-18 21:46:00,
2013-02-18 13:51:00,43.5,37.1,29.91,NE,53,1.0,3.0,78,0.00,,---,0.00,VWS V14.01,2013-02-18 21:51:00,
2013-02-18 13:56:00,43.4,36.7,29.90,ESE,111,2.0,5.0,77,0.00,,---,0.00,VWS V14.01,2013-02-18 21:56:00,
2013-02-18 14:01:00,43.3,37.2,29.90,SE,141,2.0,4.0,79,0.00,,---,0.00,VWS V14.01,2013-02-18 22:01:00,
2013-02-18 14:06:00,43.2,36.5,29.90,SW,227,4.0,7.0,77,0.00,,---,0.00,VWS V14.01,2013-02-18 22:06:00,
2013-02-18 14:11:00,43.1,36.7,29.90,SSW,200,4.0,7.0,78,0.00,,---,0.00,VWS V14.01,2013-02-18 22:11:00,
2013-02-18 14:16:00,43.2,37.1,29.90,South,170,1.0,4.0,79,0.00,,---,0.00,VWS V14.01,2013-02-18 22:16:00,
2013-02-18 14:21:00,43.2,36.8,29.90,SSE,151,3.0,4.0,78,0.00,,---,0.00,VWS V14.01,2013-02-18 22:21:00,
2013-02-18 14:26:00,43.3,37.2,29.90,SE,135,2.0,4.0,79,0.00,,---,0.00,VWS V14.01,2013-02-18 22:26:00,
2013-02-18 14:31:00,43.3,37.2,29.90,ENE,63,5.0,5.0,79,0.00,,---,0.00,VWS V14.01,2013-02-18 22:31:00,
2013-02-18 14:36:00,43.2,37.5,29.89,SE,146,3.0,6.0,80,0.00,,---,0.00,VWS V14.01,2013-02-18 22:36:00,
2013-02-18 14:41:00,43.1,37.4,29.89,SE,124,0.0,6.0,80,0.00,,---,0.00,VWS V14.01,2013-02-18 22:41:00,
2013-02-18 14:46:00,43.1,37.7,29.89,ESE,115,2.0,2.0,81,0.00,,---,0.00,VWS V14.01,2013-02-18 22:46:00,
2013-02-18 14:51:00,43.4,38.0,29.89,NE,37,3.0,6.0,81,0.00,,---,0.00,VWS V14.01,2013-02-18 22:51:00,
2013-02-18 14:56:00,43.9,37.5,29.88,SE,142,1.0,6.0,78,0.00,,---,0.00,VWS V14.01,2013-02-18 22:56:00,
2013-02-18 15:01:00,44.0,37.9,29.88,NE,51,2.0,2.0,79,0.00,,---,0.00,VWS V14.01,2013-02-18 23:01:00,
2013-02-18 15:06:00,44.5,38.1,29.88,ENE,67,8.0,8.0,78,0.00,,---,0.00,VWS V14.01,2013-02-18 23:06:00,
2013-02-18 15:11:00,44.2,37.1,29.88,WSW,244,3.0,8.0,76,0.00,,---,0.00,VWS V14.01,2013-02-18 23:11:00,
2013-02-18 15:16:00,44.1,37.4,29.88,ENE,78,3.0,5.0,77,0.00,,---,0.00,VWS V14.01,2013-02-18 23:16:00,
2013-02-18 15:21:00,44.3,37.2,29.88,East,101,5.0,6.0,76,0.00,,---,0.00,VWS V14.01,2013-02-18 23:21:00,
2013-02-18 15:26:00,44.1,36.7,29.88,NE,53,5.0,7.0,75,0.00,,---,0.00,VWS V14.01,2013-02-18 23:26:00,
2013-02-18 15:31:00,43.7,36.6,29.87,ENE,74,4.0,4.0,76,0.00,,---,0.00,VWS V14.01,2013-02-18 23:31:00,
2013-02-18 15:36:00,43.5,36.8,29.87,East,101,2.0,7.0,77,0.00,,---,0.00,VWS V14.01,2013-02-18 23:36:00,
2013-02-18 15:41:00,43.3,36.6,29.87,SSE,148,2.0,8.0,77,0.00,,---,0.00,VWS V14.01,2013-02-18 23:41:00,
2013-02-18 15:46:00,43.4,37.0,29.87,ESE,104,4.0,4.0,78,0.00,,---,0.00,VWS V14.01,2013-02-18 23:46:00,
2013-02-18 15:51:00,43.3,36.9,29.87,WSW,240,1.0,5.0,78,0.00,,---,0.00,VWS V14.01,2013-02-18 23:51:00,
2013-02-18 15:56:00,43.4,37.0,29.86,SSE,153,0.0,5.0,78,0.00,,---,0.00,VWS V14.01,2013-02-18 23:56:00,
2013-02-18 16:01:00,43.6,37.2,29.86,NE,49,1.0,2.0,78,0.00,,---,0.00,VWS V14.01,2013-02-19 00:01:00,
2013-02-18 16:06:00,43.7,37.3,29.86,NE,45,0.0,6.0,78,0.00,,---,0.00,VWS V14.01,2013-02-19 00:06:00,
2013-02-18 16:11:00,43.7,37.0,29.86,SE,141,0.0,6.0,77,0.00,,---,0.00,VWS V14.01,2013-02-19 00:11:00,
2013-02-18 16:16:00,43.7,37.3,29.86,East,98,1.0,3.0,78,0.00,,---,0.00,VWS V14.01,2013-02-19 00:16:00,
2013-02-18 16:21:00,43.4,36.7,29.86,SSW,202,2.0,3.0,77,0.00,,---,0.00,VWS V14.01,2013-02-19 00:21:00,
2013-02-18 16:26:00,43.2,36.5,29.86,SE,146,1.0,6.0,77,0.00,,---,0.00,VWS V14.01,2013-02-19 00:26:00,
2013-02-18 16:31:00,43.1,36.7,29.86,SE,128,0.0,0.0,78,0.00,,---,0.00,VWS V14.01,2013-02-19 00:31:00,
2013-02-18 16:36:00,43.1,36.7,29.85,West,271,0.0,3.0,78,0.00,,---,0.00,VWS V14.01,2013-02-19 00:36:00,
2013-02-18 16:41:00,43.1,36.7,29.85,SSE,154,0.0,3.0,78,0.00,,---,0.00,VWS V14.01,2013-02-19 00:41:00,
2013-02-18 16:46:00,43.0,36.6,29.85,ESE,107,2.0,4.0,78,0.00,,---,0.00,VWS V14.01,2013-02-19 00:46:00,
2013-02-18 16:51:00,42.9,36.5,29.84,ESE,110,1.0,4.0,78,0.00,,---,0.00,VWS V14.01,2013-02-19 00:51:00,
2013-02-18 16:56:00,42.9,36.5,29.84,West,262,1.0,4.0,78,0.00,,---,0.00,VWS V14.01,2013-02-19 00:56:00,
2013-02-18 17:01:00,42.9,36.5,29.84,East,82,0.0,0.0,78,0.00,,---,0.00,VWS V14.01,2013-02-19 01:01:00,
2013-02-18 17:06:00,42.9,36.5,29.84,South,180,1.0,3.0,78,0.00,,---,0.00,VWS V14.01,2013-02-19 01:06:00,
2013-02-18 17:11:00,42.9,36.5,29.84,North,5,2.0,4.0,78,0.00,,---,0.00,VWS V14.01,2013-02-19 01:11:00,
2013-02-18 17:16:00,42.8,36.4,29.84,WNW,288,1.0,1.0,78,0.00,,---,0.00,VWS V14.01,2013-02-19 01:16:00,
2013-02-18 17:22:00,42.7,36.3,29.84,ENE,62,0.0,5.0,78,0.00,,---,0.00,VWS V14.01,2013-02-19 01:22:00,
2013-02-18 17:27:00,42.7,36.3,29.84,South,184,1.0,5.0,78,0.00,,---,0.00,VWS V14.01,2013-02-19 01:27:00,
2013-02-18 17:32:00,42.6,36.2,29.83,SSE,162,2.0,3.0,78,0.00,,---,0.00,VWS V14.01,2013-02-19 01:32:00,
2013-02-18 17:37:00,42.5,36.1,29.83,East,93,0.0,3.0,78,0.00,,---,0.00,VWS V14.01,2013-02-19 01:37:00,
2013-02-18 17:42:00,42.3,35.9,29.83,South,188,1.0,6.0,78,0.00,,---,0.00,VWS V14.01,2013-02-19 01:42:00,
2013-02-18 17:47:00,42.1,36.1,29.83,NE,38,0.0,3.0,79,0.00,,---,0.00,VWS V14.01,2013-02-19 01:47:00,
2013-02-18 17:52:00,41.9,35.9,29.83,ESE,105,1.0,4.0,79,0.00,,---,0.00,VWS V14.01,2013-02-19 01:52:00,
2013-02-18 17:57:00,41.7,35.7,29.83,SW,224,1.0,5.0,79,0.00,,---,0.00,VWS V14.01,2013-02-19 01:57:00,
2013-02-18 18:02:00,41.5,35.5,29.82,SSE,168,2.0,4.0,79,0.00,,---,0.00,VWS V14.01,2013-02-19 02:02:00,
2013-02-18 18:07:00,41.5,35.8,29.82,East,101,2.0,7.0,80,0.00,,---,0.00,VWS V14.01,2013-02-19 02:07:00,
2013-02-18 18:12:00,41.5,35.8,29.82,ESE,109,2.0,7.0,80,0.00,,---,0.00,VWS V14.01,2013-02-19 02:12:00,
2013-02-18 18:17:00,41.4,35.7,29.82,SSE,150,4.0,4.0,80,0.00,,---,0.00,VWS V14.01,2013-02-19 02:17:00,
2013-02-18 18:22:00,41.4,35.7,29.82,SSE,166,0.0,6.0,80,0.00,,---,0.00,VWS V14.01,2013-02-19 02:22:00,
2013-02-18 18:27:00,41.3,35.6,29.82,SE,130,0.0,6.0,80,0.00,,---,0.00,VWS V14.01,2013-02-19 02:27:00,
2013-02-18 18:32:00,41.2,35.5,29.82,ESE,115,0.0,3.0,80,0.00,,---,0.00,VWS V14.01,2013-02-19 02:32:00,
2013-02-18 18:37:00,41.1,35.4,29.82,NE,48,0.0,3.0,80,0.00,,---,0.00,VWS V14.01,2013-02-19 02:37:00,
2013-02-18 18:42:00,41.0,35.3,29.82,ESE,107,1.0,3.0,80,0.00,,---,0.00,VWS V14.01,2013-02-19 02:42:00,
2013-02-18 18:47:00,40.9,35.2,29.82,East,92,3.0,3.0,80,0.00,,---,0.00,VWS V14.01,2013-02-19 02:47:00,
2013-02-18 18:52:00,40.9,35.2,29.82,ESE,119,3.0,3.0,80,0.00,,---,0.00,VWS V14.01,2013-02-19 02:52:00,
2013-02-18 18:57:00,40.8,35.1,29.81,ESE,111,0.0,3.0,80,0.00,,---,0.00,VWS V14.01,2013-02-19 02:57:00,
2013-02-18 19:02:00,40.7,35.3,29.81,ESE,111,0.0,2.0,81,0.00,,---,0.00,VWS V14.01,2013-02-19 03:02:00,
2013-02-18 19:07:00,40.6,35.2,29.81,East,87,0.0,2.0,81,0.00,,---,0.00,VWS V14.01,2013-02-19 03:07:00,
2013-02-18 19:12:00,40.4,35.3,29.81,NNE,25,0.0,2.0,82,0.00,,---,0.00,VWS V14.01,2013-02-19 03:12:00,
2013-02-18 19:17:00,40.3,35.2,29.81,East,88,0.0,1.0,82,0.00,,---,0.00,VWS V14.01,2013-02-19 03:17:00,
2013-02-18 19:22:00,40.2,35.2,29.81,ESE,111,0.0,2.0,82,0.00,,---,0.00,VWS V14.01,2013-02-19 03:22:00,
2013-02-18 19:27:00,40.2,35.2,29.81,ESE,111,0.0,2.0,82,0.00,,---,0.00,VWS V14.01,2013-02-19 03:27:00,
2013-02-18 19:32:00,40.2,35.2,29.81,ESE,110,0.0,1.0,82,0.00,,---,0.00,VWS V14.01,2013-02-19 03:32:00,
2013-02-18 19:37:00,40.1,35.1,29.81,ESE,120,0.0,2.0,82,0.00,,---,0.00,VWS V14.01,2013-02-19 03:37:00,
2013-02-18 19:42:00,40.1,35.4,29.80,ESE,119,0.0,2.0,83,0.00,,---,0.00,VWS V14.01,2013-02-19 03:42:00,
2013-02-18 19:47:00,39.9,35.2,29.80,SW,227,0.0,0.0,83,0.00,,---,0.00,VWS V14.01,2013-02-19 03:47:00,
2013-02-18 19:52:00,39.8,35.1,29.80,ENE,69,0.0,4.0,83,0.00,,---,0.00,VWS V14.01,2013-02-19 03:52:00,
2013-02-18 19:58:00,39.8,35.1,29.80,SE,133,2.0,4.0,83,0.00,,---,0.00,VWS V14.01,2013-02-19 03:58:00,
2013-02-18 20:03:00,39.8,35.1,29.80,East,94,3.0,3.0,83,0.00,,---,0.00,VWS V14.01,2013-02-19 04:03:00,
2013-02-18 20:08:00,39.9,35.2,29.80,ESE,106,0.0,3.0,83,0.00,,---,0.00,VWS V14.01,2013-02-19 04:08:00,
2013-02-18 20:13:00,39.9,35.2,29.80,ESE,106,0.0,3.0,83,0.00,,---,0.00,VWS V14.01,2013-02-19 04:13:00,
2013-02-18 20:18:00,39.9,35.2,29.80,ESE,106,0.0,0.0,83,0.00,,---,0.00,VWS V14.01,2013-02-19 04:18:00,
2013-02-18 20:23:00,39.7,35.0,29.80,ESE,106,0.0,0.0,83,0.00,,---,0.00,VWS V14.01,2013-02-19 04:23:00,
2013-02-18 20:28:00,39.4,35.0,29.79,ESE,106,0.0,0.0,84,0.00,,---,0.00,VWS V14.01,2013-02-19 04:28:00,
2013-02-18 20:32:00,38.9,34.8,29.79,ENE,72,2.0,2.0,85,0.00,,---,0.00,VWS V14.01,2013-02-19 04:32:00,
2013-02-18 20:37:00,38.3,34.5,29.79,ENE,72,1.0,2.0,86,0.00,,---,0.00,VWS V14.01,2013-02-19 04:37:00,
2013-02-18 20:42:00,37.8,34.0,29.79,ENE,61,2.0,2.0,86,0.00,,---,0.00,VWS V14.01,2013-02-19 04:42:00,
2013-02-18 20:47:00,37.5,34.0,29.79,ENE,61,1.0,2.0,87,0.00,,---,0.00,VWS V14.01,2013-02-19 04:47:00,
2013-02-18 20:52:00,37.3,34.1,29.79,ENE,61,0.0,2.0,88,0.00,,---,0.00,VWS V14.01,2013-02-19 04:52:00,
2013-02-18 20:57:00,37.3,34.1,29.79,ENE,61,0.0,2.0,88,0.00,,---,0.00,VWS V14.01,2013-02-19 04:57:00,
2013-02-18 21:00:00,37.3,34.1,29.79,ENE,61,0.0,2.0,88,0.00,,---,0.00,VWS V14.01,2013-02-19 05:00:00,
2013-02-18 21:05:00,37.4,34.2,29.79,ENE,61,0.0,0.0,88,0.00,,---,0.00,VWS V14.01,2013-02-19 05:05:00,
2013-02-18 21:10:00,37.6,34.4,29.79,ENE,61,1.0,2.0,88,0.00,,---,0.00,VWS V14.01,2013-02-19 05:10:00,
2013-02-18 21:15:00,37.7,34.5,29.79,East,95,1.0,2.0,88,0.00,,---,0.00,VWS V14.01,2013-02-19 05:15:00,
2013-02-18 21:20:00,38.2,34.7,29.79,East,95,1.0,2.0,87,0.00,,---,0.00,VWS V14.01,2013-02-19 05:20:00,
2013-02-18 21:25:00,38.5,34.7,29.79,East,95,0.0,2.0,86,0.00,,---,0.00,VWS V14.01,2013-02-19 05:25:00,
2013-02-18 21:30:00,38.7,34.6,29.79,East,95,0.0,2.0,85,0.00,,---,0.00,VWS V14.01,2013-02-19 05:30:00,
2013-02-18 21:35:00,38.9,35.1,29.79,East,95,0.0,0.0,86,0.00,,---,0.00,VWS V14.01,2013-02-19 05:35:00,
2013-02-18 21:40:00,39.1,35.0,29.78,East,95,0.0,0.0,85,0.00,,---,0.00,VWS V14.01,2013-02-19 05:40:00,
2013-02-18 21:45:00,39.2,35.1,29.78,ENE,75,2.0,2.0,85,0.00,,---,0.00,VWS V14.01,2013-02-19 05:45:00,
2013-02-18 21:50:00,39.2,35.1,29.78,ENE,75,0.0,2.0,85,0.00,,---,0.00,VWS V14.01,2013-02-19 05:50:00,
2013-02-18 21:55:00,39.1,35.3,29.78,ENE,59,0.0,2.0,86,0.00,,---,0.00,VWS V14.01,2013-02-19 05:55:00,
2013-02-18 22:00:00,38.9,35.1,29.78,East,97,1.0,1.0,86,0.00,,---,0.00,VWS V14.01,2013-02-19 06:00:00,
2013-02-18 22:05:00,39.2,35.1,29.78,East,97,0.0,2.0,85,0.00,,---,0.00,VWS V14.01,2013-02-19 06:05:00,
2013-02-18 22:10:00,39.3,35.2,29.78,East,98,2.0,2.0,85,0.00,,---,0.00,VWS V14.01,2013-02-19 06:10:00,
2013-02-18 22:15:00,39.5,35.1,29.78,ESE,107,0.0,0.0,84,0.00,,---,0.00,VWS V14.01,2013-02-19 06:15:00,
2013-02-18 22:20:00,39.8,35.7,29.78,ESE,121,0.0,1.0,85,0.00,,---,0.00,VWS V14.01,2013-02-19 06:20:00,
2013-02-18 22:25:00,39.8,35.4,29.78,WSW,238,1.0,3.0,84,0.00,,---,0.00,VWS V14.01,2013-02-19 06:25:00,
2013-02-18 22:30:00,39.7,35.6,29.78,West,271,0.0,1.0,85,0.00,,---,0.00,VWS V14.01,2013-02-19 06:30:00,
2013-02-18 22:35:00,39.4,35.6,29.78,SW,225,0.0,2.0,86,0.00,,---,0.00,VWS V14.01,2013-02-19 06:35:00,
2013-02-18 22:40:00,39.2,35.7,29.78,WSW,237,0.0,2.0,87,0.00,,---,0.00,VWS V14.01,2013-02-19 06:40:00,
2013-02-18 22:45:00,39.1,35.6,29.78,SW,223,0.0,3.0,87,0.00,,---,0.00,VWS V14.01,2013-02-19 06:45:00,
2013-02-18 22:50:00,39.0,35.5,29.78,WSW,245,0.0,2.0,87,0.00,,---,0.00,VWS V14.01,2013-02-19 06:50:00,
2013-02-18 22:55:00,38.9,35.4,29.78,WSW,249,0.0,2.0,87,0.00,,---,0.00,VWS V14.01,2013-02-19 06:55:00,
2013-02-18 23:00:00,38.8,35.3,29.78,WSW,249,0.0,0.0,87,0.00,,---,0.00,VWS V14.01,2013-02-19 07:00:00,
2013-02-18 23:05:00,38.7,35.2,29.78,SW,217,0.0,2.0,87,0.00,,---,0.00,VWS V14.01,2013-02-19 07:05:00,
2013-02-18 23:10:00,38.7,35.2,29.77,SW,217,0.0,2.0,87,0.00,,---,0.00,VWS V14.01,2013-02-19 07:10:00,
2013-02-18 23:15:00,38.7,35.5,29.77,NNE,22,0.0,1.0,88,0.00,,---,0.00,VWS V14.01,2013-02-19 07:15:00,
2013-02-18 23:20:00,38.7,35.5,29.78,NW,309,1.0,1.0,88,0.00,,---,0.00,VWS V14.01,2013-02-19 07:20:00,
2013-02-18 23:25:00,38.8,35.6,29.77,SE,134,0.0,3.0,88,0.00,,---,0.00,VWS V14.01,2013-02-19 07:25:00,
2013-02-18 23:30:00,38.7,35.5,29.77,West,268,0.0,0.0,88,0.00,,---,0.00,VWS V14.01,2013-02-19 07:30:00,
2013-02-18 23:35:00,38.7,35.5,29.77,SW,222,3.0,4.0,88,0.00,,---,0.00,VWS V14.01,2013-02-19 07:35:00,
2013-02-18 23:40:00,38.7,35.5,29.77,WSW,242,1.0,4.0,88,0.00,,---,0.00,VWS V14.01,2013-02-19 07:40:00,
2013-02-18 23:45:00,38.7,35.5,29.77,SSW,206,0.0,5.0,88,0.00,,---,0.00,VWS V14.01,2013-02-19 07:45:00,
2013-02-18 23:50:00,38.8,35.6,29.77,West,273,2.0,4.0,88,0.00,,---,0.00,VWS V14.01,2013-02-19 07:50:00,
2013-02-18 23:55:00,38.7,35.5,29.77,SW,217,3.0,5.0,88,0.00,,---,0.00,VWS V14.01,2013-02-19 07:55:00,